Powrót do katalogu

COSMOS 2251 DEB

AktywnyLEO
NORAD 34139·DEBRIS·🇷🇺 Russia

Wystrzelony Jun 16, 1993 z Plesetsk Cosmodrome

Loading…

Następne Przeloty (najbliższe 24 godziny)

TLE

ŚwieżeSource: Space-Track

Epoka: Sep 14, 2026, 22:44 UTC

1 34139U 93036LL  26257.94776551  .00003893  00000-0  76585-3 0  9994
2 34139  74.0276  85.8994 0041238  91.8121  59.6761 14.62398513921830

Śledź COSMOS 2251 DEB w czasie rzeczywistym z AllMySat

Download on the App Store